Vernal, UT

5:12 PM MDT on August 29, 2016 (GMT -0600)
Vernal

Weather History for KVEL - October, 2013

Change the Weather History Date:

Tuesday, October 1, 2013

  Actual Average Record
Temperature  
Mean Temperature 58 °F 54 °F  
Max Temperature 74 °F 68 °F 83 °F (1980)
Min Temperature 42 °F 40 °F 22 °F (1945)
Degree Days  
Heating Degree Days 7 11  
Month to date heating degree days 7 11  
Since 1 July heating degree days 148 193  
Cooling Degree Days 0 0  
Month to date cooling degree days 0 0  
Year to date cooling degree days 787 511  
Growing Degree Days 9 (Base 50)    
Moisture  
Dew Point 35 °F    
Average Humidity 45    
Maximum Humidity 70    
Minimum Humidity 20    
Precipitation  
Precipitation 0.00 in 0.05 in 0.60 in (1930)
Month to date precipitation 0.00 0.05  
Year to date precipitation 6.91 6.74  
Sea Level Pressure  
Sea Level Pressure 29.88 in    
Wind  
Wind Speed 4 mph (WSW)    
Max Wind Speed 12 mph    
Max Gust Speed 15 mph    
Visibility 10 miles    
Events      
T = Trace of Precipitation, MM = Missing Value Source: NWS Daily Summary

Daily Weather History Graph

Daily Weather History Graph

Search for Another Location

Airport or City:

Trip Planner

Search our weather history database for the weather conditions in past years. The results will help you decide how hot, cold, wet, or windy it might be!

Date:

Astronomy

Oct. 01, 2013 Rise Set
Actual Time 7:14 AM MDT 6:59 PM MDT
Civil Twilight 6:47 AM MDT 7:26 PM MDT
Nautical Twilight 6:15 AM MDT 7:58 PM MDT
Astronomical Twilight 5:44 AM MDT 8:30 PM MDT
Moon 3:51 AM MDT (10/1) 5:05 PM MDT (10/1)
Length of Visible Light 12h 39m
Length of Day
11h 44m
Waning Crescent, 11% of the Moon is Illuminated
Oct 1
Waning Crescent
Oct 4
New
Oct 11
First Quarter
Oct 18
Full
Oct 26
Last Quarter

Hourly Weather History & Observations

Time (MDT) Temp. Windchill Dew Point Humidity Pressure Visibility Wind Dir Wind Speed Gust Speed Precip Events Conditions
12:53 AM 51.1 °F - 35.1 °F 54% 29.87 in 10.0 mi West 8.1 mph - N/A   Clear
1:53 AM 48.9 °F - 35.1 °F 59% 29.87 in 10.0 mi Variable 3.5 mph - N/A   Clear
2:53 AM 46.9 °F - 34.0 °F 61% 29.88 in 10.0 mi WSW 4.6 mph - N/A   Clear
3:53 AM 46.9 °F - 34.0 °F 61% 29.88 in 10.0 mi West 3.5 mph - N/A   Clear
4:53 AM 45.0 °F 43.5 °F 34.0 °F 65% 29.89 in 10.0 mi WNW 3.5 mph - N/A   Clear
5:53 AM 45.0 °F 43.5 °F 34.0 °F 65% 29.91 in 10.0 mi West 3.5 mph - N/A   Clear
6:53 AM 45.0 °F 43.5 °F 33.1 °F 63% 29.93 in 10.0 mi West 3.5 mph - N/A   Clear
7:53 AM 45.0 °F 42.6 °F 35.1 °F 68% 29.96 in 10.0 mi West 4.6 mph - N/A   Clear
8:53 AM 53.1 °F - 39.0 °F 59% 29.95 in 10.0 mi Calm Calm - N/A   Clear
9:53 AM 57.9 °F - 34.0 °F 41% 29.95 in 10.0 mi Calm Calm - N/A   Clear
10:53 AM 57.9 °F - 32.0 °F 37% 29.95 in 10.0 mi Calm Calm - N/A   Clear
11:53 AM 64.9 °F - 34.0 °F 32% 29.93 in 10.0 mi SE 5.8 mph - N/A   Clear
12:53 PM 66.9 °F - 35.1 °F 31% 29.91 in 10.0 mi SSW 4.6 mph - N/A   Clear
1:53 PM 70.0 °F - 33.1 °F 26% 29.87 in 10.0 mi Calm Calm - N/A   Clear
2:53 PM 72.0 °F - 32.0 °F 23% 29.84 in 10.0 mi SE 4.6 mph - N/A   Clear
3:53 PM 73.9 °F - 30.9 °F 21% 29.82 in 10.0 mi South 6.9 mph - N/A   Clear
4:53 PM 73.0 °F - 36.0 °F 26% 29.81 in 10.0 mi South 4.6 mph - N/A   Clear
5:53 PM 72.0 °F - 37.9 °F 29% 29.80 in 10.0 mi SSW 3.5 mph - N/A   Clear
6:53 PM 70.0 °F - 33.1 °F 26% 29.80 in 10.0 mi Calm Calm - N/A   Clear
7:53 PM 59.0 °F - 39.0 °F 48% 29.85 in 10.0 mi WNW 6.9 mph - N/A   Clear
8:53 PM 54.0 °F - 39.0 °F 57% 29.85 in 10.0 mi NNW 3.5 mph - N/A   Clear
9:53 PM 55.9 °F - 36.0 °F 47% 29.85 in 10.0 mi North 4.6 mph - N/A   Clear
10:53 PM 54.0 °F - 37.0 °F 53% 29.86 in 10.0 mi NW 5.8 mph - N/A   Clear
11:53 PM 50.0 °F - 37.0 °F 61% 29.85 in 10.0 mi West 3.5 mph - N/A   Clear